Other Surface Observations
Issued by NWS Charleston, SC

Home | Current Version | Previous Version | Text Only | Print | Product List | Glossary On
Versions: 1 2 3 4 5 6 7 8 9 10 11 12 13 14 15 16 17 18 19 20 21 22 23 24 25 26 27 28 29 30 31 32 33 34 35 36 37 38 39 40 41 42 43 44 45 46 47 48 49 50
452
SXUS52 KCHS 230627
OSOCHS

MARINE OBSERVATIONS
NATIONAL WEATHER SERVICE CHARLESTON SC
200 AM EDT FRI JUN 23 2017

...DOWNTOWN CHARLESTON AND HARBOR...

CITY           SKY/WX    TMP DP  RH WIND       PRES   REMARKS
WATERFRONT PRK   N/A     81  78  91 S9        30.05F

...LAKE MOULTRIE...

CITY           SKY/WX    TMP DP  RH WIND       PRES   REMARKS
PINOPOLIS        N/A     77  75  94 VRB2      30.00F

...LAKE AND SUPPLEMENTAL COASTAL OBSERVATIONS...

STATION/POSITION TIME  TEMP    WIND        PRES    WAVE   SWELL
                       AIR SEA DIR/SP/G            HT/PER HT/PER/DIR
                 (UTC) (F)     (DEG/KT/KT) (MB)    (FT/S) (FT/S/D)
FORT PULASKI     0600   81 83  190/  6/ 11 1018.4
SAPELO ISLAND    0600   80     180/  9     1018.0
WINYAH BAY       0530   79     220/  5     1018.0S
LAKE MURRAY      0620   80     180/  9/ 11 1015.9
ACE BASIN NERRS  0545   80        CALM     1018.0F


...C-MAN AND BUOY OBSERVATIONS...

STATION/POSITION TIME  TEMP    WIND        PRES    WAVE   SWELL
                       AIR SEA DIR/SP/G            HT/PER HT/PER/DIR
                 (UTC) (F)     (DEG/KT/KT) (MB)    (FT/S) (FT/S/D)
BUOY 41004       0610   81 81  200/ 14/ 17 1018.0
BUOY 41008       0550   81 82  170/ 16/ 19 1017.9F   3/ 8   2/110/ 8
FOLLY BEACH CMAN 0600   81     200/ 15/ 17 1018.7F
CAPERS NS BUOY   0608   85 82  210/ 16/ 21 1017.7F
FRIPP NS BUOY    0608   82 83  200/ 16/ 21 1017.5F
5E ST. MARYS GA  0600      81                N/A     4/ 4


STATION/POSITION TIME  TEMP    WIND        PRES    WAVE   SWELL
                       AIR SEA DIR/SP/G            HT/PER HT/PER/DIR
                 (UTC) (F)     (DEG/KT/KT) (MB)    (FT/S) (FT/S/D)
FRYING PAN BUOY  0610   81 81  210/ 12/ 16 1017.9
BUOY 41025       0550   80 80  250/ 14/ 16 1017.2F   3/ 8   3/160/ 8
CAPE LOOKOUT NC  0600   79     230/  7/  8 1017.3F
BUOY 41002       0550   80 82  210/ 12/ 14 1019.8F   4/ 8   3/110/ 8
BUOY 41010       0610   82 83  150/ 10/ 14 1018.8
ST AUGUSTINE FL  0600   78 78  180/  6/  7 1019.0F

$$




USA.gov is the U.S. government's official web portal to all federal, state and local government web resources and services.